Home > Weather > Townsville > Past weeks

Flag for Australia Past Weather in Townsville, Queensland, Australia — Yesterday and Last 2 Weeks

Now
75 °F

Passing clouds.


Feels Like: 76 °F
Forecast: 74 / 80 °F
Wind: 10 mph from Southeast

Location: Townsville Amo

Current Time: May 31, 2016 at 8:23:42 AM

Latest Report: May 31, 2016 at 7:30 AM


Visibility: N/A

Pressure: 30.09 "Hg

Humidity: 78%

Dew Point: 68 °F

Location of TownsvilleLocation

Past Weather in Townsville — Graph

°F

Townsville Temperature Yesterday

Maximum temperature yesterday: 81 °F (at 10:00 AM)
Minimum temperature yesterday: 73 °F (at 7:00 AM)
Average temperature yesterday: 77 °F

High & Low Weather Summary for the Past Weeks

 TemperatureHumidityPressure
High88 °F (May 28, 12:30 PM)100% (May 19, 4:00 AM)30.09 "Hg (May 19, 4:00 AM)
Low66 °F (May 16, 7:00 AM)33% (May 28, 12:30 PM)29.83 "Hg (May 27, 2:30 PM)
Average77 °F74%29.99 "Hg
* Reported May 16 7:00 AM — May 31 7:00 AM, Townsville, Weather by CustomWeather, © 2016

Note: Actual official high and low records may vary slightly from our data, if they occured in-between our weather recording intervals... More about our weather records

Advertising

Townsville Weather History for the Previous 24 Hours

Scroll right to see more
 ConditionsComfort  
Time TempWeatherWind HumidityBarometerVisibility
7:00 AM
Tue, May 31
73 °FPassing clouds.8 mph83%30.09 "HgN/A
6:30 AM73 °FPassing clouds.8 mph83%30.09 "HgN/A
6:00 AM73 °FPassing clouds.8 mph83%30.07 "HgN/A
5:30 AM73 °FClear.8 mph83%30.07 "HgN/A
5:00 AM73 °FClear.8 mph83%30.07 "HgN/A
4:00 AM73 °FClear.9 mph89%30.07 "HgN/A
3:00 AM77 °FPassing clouds.14 mph79%30.07 "HgN/A
2:30 AM77 °FPassing clouds.14 mph79%30.07 "HgN/A
2:00 AM77 °FPartly cloudy.13 mph79%30.07 "HgN/A
1:30 AM77 °FPassing clouds.13 mph79%30.07 "HgN/A
1:00 AM77 °FPartly cloudy.13 mph79%30.07 "HgN/A
12:30 AM77 °FPassing clouds.13 mph79%30.07 "HgN/A
12:00 AM77 °FPassing clouds.12 mph79%30.07 "HgN/A
11:30 PM
Mon, May 30
77 °FClear.12 mph79%30.07 "HgN/A
11:00 PM75 °FClear.12 mph83%30.07 "HgN/A
10:00 PM77 °FClear.9 mph79%30.07 "HgN/A
9:00 PM77 °FPassing clouds.13 mph79%30.07 "HgN/A
8:30 PM77 °FClear.10 mph79%30.07 "HgN/A
8:00 PM77 °FClear.12 mph79%30.07 "HgN/A
7:00 PM77 °FClear.10 mph79%30.07 "HgN/A
6:00 PM77 °FPassing clouds.9 mph79%30.04 "HgN/A
5:00 PM79 °FScattered showers. Partly sunny.10 mph74%30.04 "HgN/A
4:30 PM79 °FBroken clouds.7 mph79%30.04 "HgN/A
4:00 PM79 °FBroken clouds.2 mph79%30.04 "HgN/A
3:30 PM79 °FBroken clouds.6 mph79%30.04 "HgN/A
3:00 PM79 °FPartly sunny.6 mph79%30.04 "HgN/A
2:30 PM79 °FScattered showers. Partly sunny.7 mph79%30.04 "HgN/A
2:00 PM77 °FScattered clouds.5 mph83%30.04 "HgN/A
1:30 PM77 °FScattered showers. Broken clouds.6 mph79%30.04 "HgN/A
1:00 PM77 °FSprinkles. Broken clouds.8 mph79%30.04 "HgN/A
12:47 PM77 °FSprinkles. Broken clouds.8 mph79%30.07 "HgN/A
12:00 PM75 °FSprinkles. Broken clouds.10 mph78%30.09 "HgN/A
11:30 AM79 °FScattered showers. Broken clouds.9 mph74%30.09 "HgN/A
11:00 AM81 °FScattered showers. Broken clouds.9 mph70%30.09 "HgN/A
10:00 AM81 °FScattered showers. Broken clouds.10 mph70%30.09 "HgN/A
9:30 AM79 °FBroken clouds.13 mph74%30.09 "HgN/A
9:00 AM79 °FBroken clouds.13 mph74%30.09 "HgN/A
8:00 AM75 °FBroken clouds.6 mph83%30.07 "HgN/A
Weather by CustomWeather, © 2016

See weather overviewHow to use our weather pages